When you browse on this site, cookies collect data to enhance your experience and personalize the content and advertising you see.
Visit our Privacy Policy to learn more. By continuing to use the site, you agree to this use of cookies and data.
  • Em Portugal
  • Lista de países
  • Para 7 dias
  • Temperatura da água
  • Mapa do tempo
  • Widgets de tempo
  • user-avatar
    Iniciar Sessão

    Previsão horária em Romodanovo

    Hoje, 26 Maio, Terça-feira

    Tempo Temperatura Precipitação Vento Pressão Humidade
    00:00 +11°C° 0 mm 1 m/s 760 mmHg 80%
    01:00 +11°C° 0 mm 1 m/s 760 mmHg 81%
    02:00 +11°C° 0 mm 1 m/s 760 mmHg 81%
    03:00 +11°C° 0 mm 1 m/s 761 mmHg 84%
    04:00 +10°C° 0 mm 2 m/s 761 mmHg 86%
    05:00 +12°C° 0 mm 2 m/s 761 mmHg 87%
    06:00 +12°C° 0 mm 2 m/s 761 mmHg 88%
    07:00 +12°C° 0 mm 3 m/s 761 mmHg 85%
    08:00 +13°C° 0 mm 4 m/s 761 mmHg 81%
    09:00 +15°C° 0 mm 5 m/s 761 mmHg 78%
    10:00 +15°C° 0 mm 5 m/s 760 mmHg 75%
    11:00 +16°C° 0 mm 5 m/s 760 mmHg 72%
    12:00 +17°C° 0 mm 5 m/s 759 mmHg 69%
    13:00 +17°C° 0.1 mm 5 m/s 759 mmHg 71%
    14:00 +16°C° 0.1 mm 5 m/s 759 mmHg 72%
    15:00 +16°C° 0 mm 5 m/s 759 mmHg 74%
    16:00 +16°C° 0 mm 5 m/s 758 mmHg 75%
    17:00 +16°C° 0 mm 5 m/s 758 mmHg 76%
    18:00 +15°C° 0 mm 5 m/s 757 mmHg 77%
    19:00 +15°C° 0.1 mm 5 m/s 757 mmHg 80%
    20:00 +14°C° 0.1 mm 5 m/s 756 mmHg 82%
    21:00 +13°C° 0.1 mm 5 m/s 755 mmHg 84%
    22:00 +13°C° 0.8 mm 4 m/s 755 mmHg 87%
    23:00 +12°C° 0.8 mm 4 m/s 754 mmHg 91%

    Amanhã, 27 Maio, Quarta-feira

    Tempo Temperatura Precipitação Vento Pressão Humidade
    00:00 +12°C° 0.8 mm 3 m/s 754 mmHg 94%
    01:00 +12°C° 0.6 mm 4 m/s 753 mmHg 95%
    02:00 +11°C° 0.6 mm 4 m/s 753 mmHg 95%
    03:00 +10°C° 0.6 mm 5 m/s 752 mmHg 96%
    04:00 +10°C° 0.2 mm 5 m/s 752 mmHg 96%
    05:00 +11°C° 0.2 mm 4 m/s 752 mmHg 96%
    06:00 +11°C° 0.2 mm 4 m/s 752 mmHg 96%
    07:00 +11°C° 0 mm 4 m/s 752 mmHg 95%
    08:00 +12°C° 0 mm 4 m/s 752 mmHg 94%
    09:00 +12°C° 0 mm 4 m/s 753 mmHg 94%
    10:00 +13°C° 0 mm 4 m/s 753 mmHg 91%
    11:00 +13°C° 0 mm 4 m/s 753 mmHg 89%
    12:00 +14°C° 0 mm 3 m/s 754 mmHg 87%
    13:00 +14°C° 0 mm 4 m/s 754 mmHg 84%
    14:00 +15°C° 0 mm 4 m/s 754 mmHg 82%
    15:00 +15°C° 0 mm 4 m/s 755 mmHg 80%
    16:00 +17°C° 0 mm 3 m/s 755 mmHg 79%
    17:00 +17°C° 0 mm 3 m/s 755 mmHg 78%
    18:00 +17°C° 0 mm 2 m/s 755 mmHg 77%
    19:00 +16°C° 0 mm 1 m/s 755 mmHg 80%
    20:00 +14°C° 0 mm 1 m/s 755 mmHg 84%
    21:00 +11°C° 0 mm 0 m/s 756 mmHg 87%
    22:00 +11°C° 0 mm 0 m/s 756 mmHg 88%
    23:00 +11°C° 0 mm 0 m/s 756 mmHg 89%

    Depois de amanhã, 28 Maio, Quinta-feira

    Tempo Temperatura Precipitação Vento Pressão Humidade
    00:00 +12°C° 0 mm 1 m/s 756 mmHg 89%
    01:00 +11°C° 0 mm 1 m/s 756 mmHg 90%
    02:00 +11°C° 0 mm 1 m/s 757 mmHg 91%
    03:00 +11°C° 0 mm 1 m/s 757 mmHg 91%
    04:00 +11°C° 0 mm 0 m/s 757 mmHg 90%
    05:00 +11°C° 0 mm 0 m/s 757 mmHg 89%
    06:00 +12°C° 0 mm 0 m/s 757 mmHg 88%
    07:00 +14°C° 0 mm 0 m/s 757 mmHg 84%
    08:00 +15°C° 0 mm 0 m/s 757 mmHg 79%
    09:00 +17°C° 0 mm 0 m/s 757 mmHg 74%
    10:00 +18°C° 0.1 mm 0 m/s 757 mmHg 70%
    11:00 +19°C° 0.1 mm 0 m/s 757 mmHg 66%
    12:00 +20°C° 0.1 mm 0 m/s 757 mmHg 63%
    13:00 +20°C° 0.1 mm 0 m/s 757 mmHg 61%
    14:00 +22°C° 0.1 mm 1 m/s 756 mmHg 59%
    15:00 +22°C° 0.1 mm 1 m/s 756 mmHg 57%
    16:00 +22°C° 0 mm 1 m/s 756 mmHg 62%
    17:00 +22°C° 0 mm 1 m/s 756 mmHg 66%
    18:00 +22°C° 0 mm 1 m/s 756 mmHg 70%
    19:00 +20°C° 0 mm 1 m/s 756 mmHg 74%
    20:00 +18°C° 0 mm 1 m/s 756 mmHg 79%
    21:00 +16°C° 0 mm 2 m/s 756 mmHg 83%
    22:00 +15°C° 0 mm 2 m/s 756 mmHg 85%
    23:00 +15°C° 0 mm 2 m/s 756 mmHg 87%

    29 Maio, Sexta-feira

    Tempo Temperatura Precipitação Vento Pressão Humidade
    00:00 +14°C° 0 mm 2 m/s 757 mmHg 89%
    01:00 +14°C° 0 mm 2 m/s 756 mmHg 89%
    02:00 +14°C° 0 mm 2 m/s 756 mmHg 90%
    03:00 +13°C° 0 mm 2 m/s 756 mmHg 90%
    04:00 +14°C° 0 mm 2 m/s 756 mmHg 88%
    05:00 +14°C° 0 mm 3 m/s 756 mmHg 86%
    06:00 +16°C° 0 mm 3 m/s 756 mmHg 84%
    07:00 +17°C° 0 mm 4 m/s 756 mmHg 80%
    08:00 +18°C° 0 mm 4 m/s 756 mmHg 75%
    09:00 +20°C° 0 mm 4 m/s 756 mmHg 71%
    10:00 +21°C° 0 mm 5 m/s 755 mmHg 68%
    11:00 +21°C° 0 mm 5 m/s 755 mmHg 66%
    12:00 +22°C° 0 mm 5 m/s 755 mmHg 63%
    13:00 +23°C° 0 mm 5 m/s 755 mmHg 63%
    14:00 +23°C° 0 mm 4 m/s 754 mmHg 62%
    15:00 +23°C° 0 mm 4 m/s 754 mmHg 62%
    16:00 +23°C° 0 mm 4 m/s 753 mmHg 67%
    17:00 +22°C° 0 mm 4 m/s 753 mmHg 71%
    18:00 +22°C° 0 mm 3 m/s 753 mmHg 76%
    19:00 +20°C° 0 mm 4 m/s 753 mmHg 79%
    20:00 +19°C° 0 mm 4 m/s 753 mmHg 83%
    21:00 +17°C° 0 mm 4 m/s 752 mmHg 86%
    22:00 +15°C° 0 mm 4 m/s 752 mmHg 88%
    23:00 +16°C° 0 mm 3 m/s 752 mmHg 89%

    30 Maio, Sábado

    Tempo Temperatura Precipitação Vento Pressão Humidade
    00:00 +14°C° 0 mm 3 m/s 752 mmHg 91%
    01:00 +13°C° 0 mm 3 m/s 752 mmHg 92%
    02:00 +13°C° 0 mm 3 m/s 751 mmHg 92%
    03:00 +13°C° 0 mm 3 m/s 751 mmHg 93%
    04:00 +13°C° 0 mm 3 m/s 751 mmHg 91%
    05:00 +14°C° 0 mm 3 m/s 750 mmHg 88%
    06:00 +16°C° 0 mm 3 m/s 750 mmHg 86%
    07:00 +17°C° 0 mm 3 m/s 750 mmHg 81%
    08:00 +19°C° 0 mm 4 m/s 749 mmHg 77%
    09:00 +20°C° 0 mm 4 m/s 749 mmHg 72%
    10:00 +21°C° 0 mm 4 m/s 749 mmHg 70%
    11:00 +23°C° 0 mm 4 m/s 749 mmHg 68%
    12:00 +25°C° 0 mm 5 m/s 748 mmHg 65%
    13:00 +25°C° 0 mm 5 m/s 748 mmHg 65%
    14:00 +25°C° 0 mm 5 m/s 747 mmHg 64%
    15:00 +26°C° 0 mm 6 m/s 747 mmHg 64%
    16:00 +25°C° 0 mm 5 m/s 747 mmHg 68%
    17:00 +23°C° 0 mm 5 m/s 746 mmHg 72%
    18:00 +23°C° 0 mm 5 m/s 746 mmHg 76%
    19:00 +21°C° 0 mm 5 m/s 745 mmHg 80%
    20:00 +20°C° 0 mm 5 m/s 745 mmHg 83%
    21:00 +19°C° 0 mm 5 m/s 744 mmHg 87%
    22:00 +19°C° 0 mm 5 m/s 744 mmHg 87%
    23:00 +17°C° 0 mm 6 m/s 743 mmHg 87%

    31 Maio, Domingo

    Tempo Temperatura Precipitação Vento Pressão Humidade
    00:00 +17°C° 0 mm 6 m/s 743 mmHg 87%
    01:00 +17°C° 0.1 mm 6 m/s 742 mmHg 87%
    02:00 +17°C° 0.1 mm 6 m/s 742 mmHg 87%
    03:00 +17°C° 0.1 mm 5 m/s 742 mmHg 87%
    04:00 +17°C° 0.9 mm 6 m/s 741 mmHg 88%
    05:00 +17°C° 0.9 mm 7 m/s 741 mmHg 88%
    06:00 +16°C° 0.9 mm 7 m/s 741 mmHg 89%
    07:00 +16°C° 2.2 mm 7 m/s 741 mmHg 90%
    08:00 +16°C° 2.2 mm 7 m/s 741 mmHg 92%
    09:00 +16°C° 2.2 mm 7 m/s 741 mmHg 94%
    10:00 +15°C° 2.1 mm 7 m/s 741 mmHg 94%
    11:00 +15°C° 2.1 mm 8 m/s 742 mmHg 94%
    12:00 +15°C° 2.1 mm 8 m/s 742 mmHg 95%
    13:00 +13°C° 2.3 mm 8 m/s 742 mmHg 95%
    14:00 +13°C° 2.3 mm 8 m/s 742 mmHg 95%
    15:00 +13°C° 2.3 mm 8 m/s 742 mmHg 95%
    16:00 +12°C° 2.5 mm 8 m/s 743 mmHg 95%
    17:00 +12°C° 2.5 mm 8 m/s 743 mmHg 95%
    18:00 +12°C° 2.5 mm 7 m/s 743 mmHg 95%
    19:00 +11°C° 2 mm 8 m/s 744 mmHg 93%
    20:00 +10°C° 2 mm 8 m/s 744 mmHg 92%
    21:00 +10°C° 2 mm 8 m/s 745 mmHg 90%
    22:00 +9°C° 0.2 mm 7 m/s 745 mmHg 90%
    23:00 +9°C° 0.2 mm 6 m/s 745 mmHg 91%
    Mostrar mais